Weather History for Bentonville, AR

Change the Weather History Date:

Friday, March 15, 2013

  Actual Average Record
Temperature  
Mean Temperature 64 °F -  
Max Temperature 78 °F 58 °F 78 °F (2013)
Min Temperature 50 °F 34 °F 13 °F (1954)
Degree Days  
Heating Degree Days 1    
Growing Degree Days 14 (Base 50)    
Moisture  
Dew Point 43 °F    
Average Humidity 48    
Maximum Humidity 67    
Minimum Humidity 28    
Precipitation  
Precipitation 0.00 in - - ()
Sea Level Pressure  
Sea Level Pressure 29.95 in    
Wind  
Wind Speed 9 mph (SSW)    
Max Wind Speed 23 mph    
Max Gust Speed 34 mph    
Visibility 10 miles    
Events      
Averages and records for this station are not official NWS values.
T = Trace of Precipitation, MM = Missing Value Source: NWS Daily Summary

Daily Weather History Graph

Daily Weather History Graph

Search for Another Location

Airport:

Trip Planner

Search our weather history database for the weather conditions in past years. The results will help you decide how hot, cold, wet, or windy it might be!

Date:

Astronomy

Mar. 15, 2013 Rise Set
Actual Time 7:27 AM CDT 7:24 PM CDT
Civil Twilight 7:01 AM CDT 7:50 PM CDT
Nautical Twilight 6:31 AM CDT 8:20 PM CDT
Astronomical Twilight 6:01 AM CDT 8:50 PM CDT
Moon 9:25 AM CDT (3/15) 11:30 PM CDT (3/15)
Length of Visible Light 12h 48m
Length of Day
11h 57m
Waxing Crescent, 15% of the Moon is Illuminated
Mar 15
Waxing Crescent
Mar 19
First Quarter
Mar 27
Full
Apr 2
Last Quarter
Apr 10
New

Hourly Weather History & Observations

Time (CDT) Temp. Dew Point Humidity Pressure Visibility Wind Dir Wind Speed Gust Speed Precip Events Conditions
12:15 AM 55.4 °F 39.2 °F 54% 30.11 in 10.0 mi SSW 5.8 mph - N/A   Clear
12:35 AM 53.6 °F 39.2 °F 58% 30.11 in 10.0 mi SSW 5.8 mph - N/A   Clear
1:15 AM 53.6 °F 39.2 °F 58% 30.11 in 10.0 mi SSW 5.8 mph - N/A   Clear
1:35 AM 53.6 °F 39.2 °F 58% 30.11 in 10.0 mi SSW 4.6 mph - N/A   Clear
1:55 AM 51.8 °F 39.2 °F 62% 30.10 in 10.0 mi SW 6.9 mph - N/A   Clear
2:15 AM 51.8 °F 39.2 °F 62% 30.10 in 10.0 mi SW 6.9 mph - N/A   Clear
2:35 AM 51.8 °F 39.2 °F 62% 30.10 in 10.0 mi SW 6.9 mph - N/A   Clear
2:55 AM 51.8 °F 39.2 °F 62% 30.09 in 10.0 mi SW 6.9 mph - N/A   Clear
3:15 AM 51.8 °F 39.2 °F 62% 30.09 in 10.0 mi SW 6.9 mph - N/A   Clear
3:35 AM 51.8 °F 39.2 °F 62% 30.08 in 10.0 mi SW 5.8 mph - N/A   Clear
3:55 AM 51.8 °F 39.2 °F 62% 30.07 in 10.0 mi SW 5.8 mph - N/A   Clear
4:15 AM 51.8 °F 39.2 °F 62% 30.07 in 10.0 mi SSW 5.8 mph - N/A   Clear
4:35 AM 51.8 °F 39.2 °F 62% 30.06 in 10.0 mi SSW 5.8 mph - N/A   Clear
4:55 AM 51.8 °F 39.2 °F 62% 30.05 in 10.0 mi SSW 4.6 mph - N/A   Clear
5:15 AM 50.0 °F 39.2 °F 66% 30.05 in 10.0 mi SSW 5.8 mph - N/A   Clear
5:35 AM 51.8 °F 41.0 °F 67% 30.05 in 10.0 mi SSW 5.8 mph - N/A   Clear
5:55 AM 51.8 °F 41.0 °F 67% 30.05 in 10.0 mi SSW 5.8 mph - N/A   Clear
6:15 AM 51.8 °F 41.0 °F 67% 30.05 in 10.0 mi SSW 5.8 mph - N/A   Clear
6:35 AM 51.8 °F 41.0 °F 67% 30.05 in 10.0 mi SSW 5.8 mph - N/A   Clear
6:55 AM 50.0 °F 39.2 °F 66% 30.04 in 10.0 mi South 4.6 mph - N/A   Clear
7:15 AM 51.8 °F 41.0 °F 67% 30.04 in 10.0 mi South 5.8 mph - N/A   Clear
7:35 AM 51.8 °F 41.0 °F 67% 30.04 in 10.0 mi South 5.8 mph - N/A   Clear
7:55 AM 51.8 °F 41.0 °F 67% 30.03 in 10.0 mi South 5.8 mph - N/A   Clear
8:15 AM 53.6 °F 42.8 °F 67% 30.03 in 10.0 mi SSW 6.9 mph - N/A   Clear
8:35 AM 55.4 °F 42.8 °F 63% 30.02 in 10.0 mi SSW 8.1 mph - N/A   Clear
8:55 AM 57.2 °F 42.8 °F 59% 30.02 in 10.0 mi SSW 10.4 mph - N/A   Clear
9:15 AM 60.8 °F 42.8 °F 52% 30.02 in 10.0 mi SSW 12.7 mph - N/A   Clear
9:35 AM 62.6 °F 44.6 °F 52% 30.01 in 10.0 mi SW 15.0 mph 18.4 mph N/A   Clear
9:55 AM 62.6 °F 44.6 °F 52% 30.01 in 10.0 mi SW 11.5 mph 18.4 mph N/A   Clear
10:15 AM 64.4 °F 44.6 °F 49% 30.00 in 10.0 mi SW 15.0 mph - N/A   Clear
10:35 AM 66.2 °F 44.6 °F 46% 30.00 in 10.0 mi SW 13.8 mph - N/A   Clear
10:55 AM 66.2 °F 44.6 °F 46% 30.00 in 10.0 mi SW 16.1 mph - N/A   Clear
11:15 AM 69.8 °F 44.6 °F 40% 29.99 in 10.0 mi SW 13.8 mph - N/A   Clear
11:35 AM 69.8 °F 44.6 °F 40% 29.98 in 10.0 mi SW 13.8 mph - N/A   Clear
11:55 AM 71.6 °F 46.4 °F 41% 29.98 in 10.0 mi SSW 13.8 mph 17.3 mph N/A   Clear
12:15 PM 71.6 °F 44.6 °F 38% 29.97 in 10.0 mi SW 16.1 mph 19.6 mph N/A   Clear
12:35 PM 71.6 °F 46.4 °F 41% 29.97 in 10.0 mi SSW 13.8 mph 17.3 mph N/A   Clear
12:55 PM 73.4 °F 46.4 °F 38% 29.96 in 10.0 mi SSW 13.8 mph - N/A   Clear
1:15 PM 73.4 °F 44.6 °F 36% 29.94 in 10.0 mi SSW 12.7 mph 20.7 mph N/A   Clear
1:35 PM 73.4 °F 44.6 °F 36% 29.94 in 10.0 mi SSW 16.1 mph 21.9 mph N/A   Clear
1:55 PM 75.2 °F 46.4 °F 36% 29.93 in 10.0 mi SW 13.8 mph 24.2 mph N/A   Clear
2:15 PM 75.2 °F 46.4 °F 36% 29.91 in 10.0 mi SSW 17.3 mph 21.9 mph N/A   Clear
2:35 PM 75.2 °F 44.6 °F 34% 29.90 in 10.0 mi SSW 17.3 mph 21.9 mph N/A   Clear
2:55 PM 77.0 °F 44.6 °F 32% 29.88 in 10.0 mi SW 18.4 mph 24.2 mph N/A   Clear
3:15 PM 78.8 °F 44.6 °F 30% 29.85 in 10.0 mi SSW 16.1 mph 25.3 mph N/A   Clear
3:35 PM 78.8 °F 44.6 °F 30% 29.84 in 10.0 mi SSW 19.6 mph 24.2 mph N/A   Clear
3:55 PM 78.8 °F 42.8 °F 28% 29.83 in 10.0 mi SSW 18.4 mph 27.6 mph N/A   Clear
4:15 PM 78.8 °F 42.8 °F 28% 29.83 in 10.0 mi SW 21.9 mph 29.9 mph N/A   Clear
4:35 PM 78.8 °F 42.8 °F 28% 29.83 in 10.0 mi SW 23.0 mph 32.2 mph N/A   Clear
5:15 PM 77.0 °F 44.6 °F 32% 29.83 in 10.0 mi SW 18.4 mph 34.5 mph N/A   Clear
5:35 PM 75.2 °F 44.6 °F 34% 29.82 in 10.0 mi SW 16.1 mph 25.3 mph N/A   Clear
5:55 PM 75.2 °F 44.6 °F 34% 29.82 in 10.0 mi SW 13.8 mph 18.4 mph N/A   Clear
6:15 PM 75.2 °F 44.6 °F 34% 29.82 in 10.0 mi SW 12.7 mph 20.7 mph N/A   Clear
6:35 PM 73.4 °F 42.8 °F 33% 29.81 in 10.0 mi SW 12.7 mph - N/A   Clear
6:55 PM 73.4 °F 42.8 °F 33% 29.81 in 10.0 mi SW 10.4 mph - N/A   Clear
7:15 PM 71.6 °F 42.8 °F 35% 29.81 in 10.0 mi SW 11.5 mph 16.1 mph N/A   Clear
7:35 PM 71.6 °F 42.8 °F 35% 29.82 in 10.0 mi SW 10.4 mph - N/A   Clear
7:55 PM 69.8 °F 42.8 °F 38% 29.81 in 10.0 mi SSW 12.7 mph - N/A   Clear
8:15 PM 69.8 °F 42.8 °F 38% 29.81 in 10.0 mi SSW 9.2 mph - N/A   Clear
8:35 PM 69.8 °F 42.8 °F 38% 29.81 in 10.0 mi SSW 10.4 mph - N/A   Clear
8:55 PM 68.0 °F 42.8 °F 40% 29.81 in 10.0 mi SSW 11.5 mph - N/A   Clear
9:15 PM 68.0 °F 42.8 °F 40% 29.81 in 10.0 mi SSW 11.5 mph - N/A   Clear
9:35 PM 66.2 °F 42.8 °F 43% 29.82 in 10.0 mi SSW 10.4 mph - N/A   Clear
9:55 PM 66.2 °F 42.8 °F 43% 29.82 in 10.0 mi SSW 9.2 mph - N/A   Clear
10:15 PM 66.2 °F 42.8 °F 43% 29.81 in 10.0 mi SSW 15.0 mph - N/A   Clear
10:35 PM 66.2 °F 44.6 °F 46% 29.81 in 10.0 mi SSW 12.7 mph 16.1 mph N/A   Clear
10:55 PM 66.2 °F 44.6 °F 46% 29.81 in 10.0 mi SSW 12.7 mph 25.3 mph N/A   Clear
11:15 PM 66.2 °F 44.6 °F 46% 29.81 in 10.0 mi South 11.5 mph - N/A   Clear
11:35 PM 64.4 °F 44.6 °F 49% 29.80 in 10.0 mi SSW 10.4 mph 16.1 mph N/A   Clear
11:55 PM 64.4 °F 44.6 °F 49% 29.80 in 10.0 mi South 12.7 mph - N/A   Clear